Time,TemperatureF,DewpointF,PressureIn,WindDirection,WindDirectionDegrees,WindSpeedMPH,WindSpeedGustMPH,Humidity,HourlyPrecipIn,Conditions,Clouds,dailyrainin,SoftwareType,DateUTC
2013-05-31 00:00:00,70.4,60.9,30.14,SE,131,1.0,2.0,72,0.00,,,0.09,Wunderground v.1.15,2013-05-31 04:00:00,
2013-05-31 00:05:00,70.0,60.6,30.13,SE,131,1.0,2.0,72,0.00,,,0.00,Wunderground v.1.15,2013-05-31 04:05:00,
2013-05-31 00:10:00,69.8,61.1,30.14,SE,131,1.0,1.0,74,0.00,,,0.00,Wunderground v.1.15,2013-05-31 04:10:00,
2013-05-31 00:15:00,69.5,60.8,30.14,SE,131,1.0,1.0,74,0.00,,,0.00,Wunderground v.1.15,2013-05-31 04:15:00,
2013-05-31 00:20:00,69.4,60.8,30.14,SE,131,1.0,1.0,74,0.00,,,0.00,Wunderground v.1.15,2013-05-31 04:20:00,
2013-05-31 00:25:00,69.7,61.0,30.14,SE,131,1.0,1.0,74,0.00,,,0.00,Wunderground v.1.15,2013-05-31 04:25:00,
2013-05-31 00:30:00,69.8,60.8,30.14,SE,131,0.0,0.0,73,0.00,,,0.00,Wunderground v.1.15,2013-05-31 04:30:00,
2013-05-31 00:35:00,69.9,60.8,30.14,SE,131,0.0,3.0,73,0.00,,,0.00,Wunderground v.1.15,2013-05-31 04:35:00,
2013-05-31 00:40:00,70.2,60.7,30.14,SE,131,1.0,1.0,72,0.00,,,0.00,Wunderground v.1.15,2013-05-31 04:40:00,
2013-05-31 00:45:00,70.0,60.9,30.14,SSE,160,2.0,3.0,73,0.00,,,0.00,Wunderground v.1.15,2013-05-31 04:45:00,
2013-05-31 00:50:00,69.5,60.8,30.14,SSE,160,2.0,2.0,74,0.00,,,0.00,Wunderground v.1.15,2013-05-31 04:50:00,
2013-05-31 00:55:00,69.3,60.7,30.14,SSE,160,2.0,3.0,74,0.00,,,0.00,Wunderground v.1.15,2013-05-31 04:55:00,
2013-05-31 01:01:00,69.4,60.8,30.14,SSE,160,2.0,3.0,74,0.00,,,0.00,Wunderground v.1.15,2013-05-31 05:01:00,
2013-05-31 01:05:00,69.4,60.8,30.14,SSE,160,3.0,3.0,74,0.00,,,0.00,Wunderground v.1.15,2013-05-31 05:05:00,
2013-05-31 01:10:00,69.5,60.8,30.14,SSE,160,2.0,3.0,74,0.00,,,0.00,Wunderground v.1.15,2013-05-31 05:10:00,
2013-05-31 01:15:00,69.9,61.2,30.14,SSE,160,2.0,2.0,74,0.00,,,0.00,Wunderground v.1.15,2013-05-31 05:15:00,
2013-05-31 01:20:00,70.0,60.9,30.14,SSE,160,2.0,2.0,73,0.00,,,0.00,Wunderground v.1.15,2013-05-31 05:20:00,
2013-05-31 01:25:00,70.1,61.0,30.14,SSE,160,3.0,3.0,73,0.00,,,0.00,Wunderground v.1.15,2013-05-31 05:25:00,
2013-05-31 01:30:00,70.3,60.8,30.14,SSE,160,3.0,3.0,72,0.00,,,0.00,Wunderground v.1.15,2013-05-31 05:30:00,
2013-05-31 01:35:00,70.2,61.1,30.14,SSE,160,2.0,3.0,73,0.00,,,0.00,Wunderground v.1.15,2013-05-31 05:35:00,
2013-05-31 01:45:00,69.7,61.0,30.13,SSE,160,3.0,3.0,74,0.00,,,0.00,Wunderground v.1.15,2013-05-31 05:45:00,
2013-05-31 01:50:00,69.7,61.0,30.13,SSE,160,3.0,3.0,74,0.00,,,0.00,Wunderground v.1.15,2013-05-31 05:50:00,
2013-05-31 01:55:00,69.5,60.8,30.13,SSE,160,2.0,2.0,74,0.00,,,0.00,Wunderground v.1.15,2013-05-31 05:55:00,
2013-05-31 02:01:00,69.1,60.8,30.13,SSE,160,2.0,2.0,75,0.00,,,0.00,Wunderground v.1.15,2013-05-31 06:01:00,
2013-05-31 02:05:00,68.9,61.0,30.13,SSE,160,2.0,2.0,76,0.00,,,0.00,Wunderground v.1.15,2013-05-31 06:05:00,
2013-05-31 02:10:00,68.9,61.0,30.13,SSE,160,2.0,2.0,76,0.00,,,0.00,Wunderground v.1.15,2013-05-31 06:10:00,
2013-05-31 02:15:00,68.9,61.0,30.13,SSE,160,2.0,2.0,76,0.00,,,0.00,Wunderground v.1.15,2013-05-31 06:15:00,
2013-05-31 02:20:00,68.7,60.8,30.13,SE,124,1.0,2.0,76,0.00,,,0.00,Wunderground v.1.15,2013-05-31 06:20:00,
2013-05-31 02:25:00,68.2,60.7,30.13,SE,124,0.0,0.0,77,0.00,,,0.01,Wunderground v.1.15,2013-05-31 06:25:00,
2013-05-31 02:30:00,67.8,60.7,30.13,SE,124,0.0,0.0,78,0.00,,,0.01,Wunderground v.1.15,2013-05-31 06:30:00,
2013-05-31 02:35:00,67.4,60.7,30.13,SE,124,0.0,0.0,79,0.00,,,0.01,Wunderground v.1.15,2013-05-31 06:35:00,
2013-05-31 02:40:00,67.0,60.6,30.13,SE,124,0.0,0.0,80,0.00,,,0.01,Wunderground v.1.15,2013-05-31 06:40:00,
2013-05-31 02:45:00,66.8,60.4,30.13,SE,124,1.0,1.0,80,0.00,,,0.01,Wunderground v.1.15,2013-05-31 06:45:00,
2013-05-31 02:50:00,66.6,60.6,30.13,SE,124,0.0,1.0,81,0.00,,,0.01,Wunderground v.1.15,2013-05-31 06:50:00,
2013-05-31 02:55:00,66.6,60.6,30.13,SE,124,1.0,2.0,81,0.00,,,0.01,Wunderground v.1.15,2013-05-31 06:55:00,
2013-05-31 03:00:00,66.8,60.4,30.13,SE,136,1.0,3.0,80,0.00,,,0.01,Wunderground v.1.15,2013-05-31 07:00:00,
2013-05-31 03:10:00,67.0,60.6,30.13,SSE,162,1.0,1.0,80,0.00,,,0.01,Wunderground v.1.15,2013-05-31 07:10:00,
2013-05-31 03:15:00,66.9,60.5,30.13,SSE,162,1.0,1.0,80,0.00,,,0.01,Wunderground v.1.15,2013-05-31 07:15:00,
2013-05-31 03:20:00,67.1,60.7,30.13,SSE,162,1.0,1.0,80,0.00,,,0.01,Wunderground v.1.15,2013-05-31 07:20:00,
2013-05-31 03:25:00,67.4,60.7,30.13,SSE,163,0.0,1.0,79,0.00,,,0.01,Wunderground v.1.15,2013-05-31 07:25:00,
2013-05-31 03:30:00,67.6,60.9,30.13,SSE,163,0.0,0.0,79,0.00,,,0.01,Wunderground v.1.15,2013-05-31 07:30:00,
2013-05-31 03:35:00,67.8,61.0,30.13,SSE,163,0.0,0.0,79,0.00,,,0.01,Wunderground v.1.15,2013-05-31 07:35:00,
2013-05-31 03:40:00,67.9,60.8,30.13,SSE,163,0.0,0.0,78,0.00,,,0.01,Wunderground v.1.15,2013-05-31 07:40:00,
2013-05-31 03:45:00,68.0,60.9,30.13,SSE,163,0.0,0.0,78,0.00,,,0.01,Wunderground v.1.15,2013-05-31 07:45:00,
2013-05-31 03:50:00,67.7,61.0,30.13,SSE,163,0.0,0.0,79,0.00,,,0.01,Wunderground v.1.15,2013-05-31 07:50:00,
2013-05-31 03:55:00,67.5,60.8,30.13,SSW,193,0.0,0.0,79,0.00,,,0.01,Wunderground v.1.15,2013-05-31 07:55:00,
2013-05-31 04:00:00,67.1,60.7,30.13,SSW,193,0.0,0.0,80,0.00,,,0.01,Wunderground v.1.15,2013-05-31 08:00:00,
2013-05-31 04:05:00,66.3,60.6,30.13,ESE,113,1.0,1.0,82,0.00,,,0.01,Wunderground v.1.15,2013-05-31 08:05:00,
2013-05-31 04:10:00,65.6,60.3,30.13,ESE,113,1.0,1.0,83,0.00,,,0.01,Wunderground v.1.15,2013-05-31 08:10:00,
2013-05-31 04:15:00,65.2,60.2,30.14,ESE,113,0.0,1.0,84,0.00,,,0.01,Wunderground v.1.15,2013-05-31 08:15:00,
2013-05-31 04:20:00,64.9,60.3,30.14,ESE,113,0.0,1.0,85,0.00,,,0.01,Wunderground v.1.15,2013-05-31 08:20:00,
2013-05-31 04:25:00,65.0,60.4,30.14,ESE,113,0.0,1.0,85,0.00,,,0.01,Wunderground v.1.15,2013-05-31 08:25:00,
2013-05-31 04:30:00,65.2,60.6,30.14,SSE,147,0.0,0.0,85,0.00,,,0.01,Wunderground v.1.15,2013-05-31 08:30:00,
2013-05-31 04:35:00,65.3,60.7,30.14,SSE,147,0.0,0.0,85,0.00,,,0.01,Wunderground v.1.15,2013-05-31 08:35:00,
2013-05-31 04:40:00,65.3,60.3,30.14,SSE,147,0.0,0.0,84,0.00,,,0.01,Wunderground v.1.15,2013-05-31 08:40:00,
2013-05-31 04:45:00,65.4,60.4,30.14,SSE,151,0.0,0.0,84,0.00,,,0.01,Wunderground v.1.15,2013-05-31 08:45:00,
2013-05-31 04:50:00,66.1,60.8,30.14,SW,227,0.0,0.0,83,0.00,,,0.01,Wunderground v.1.15,2013-05-31 08:50:00,
2013-05-31 04:55:00,66.9,60.9,30.14,WSW,240,1.0,1.0,81,0.00,,,0.01,Wunderground v.1.15,2013-05-31 08:55:00,
2013-05-31 05:00:00,67.8,61.0,30.14,SW,215,1.0,1.0,79,0.00,,,0.01,Wunderground v.1.15,2013-05-31 09:00:00,
2013-05-31 05:05:00,68.3,61.2,30.14,SSW,203,1.0,1.0,78,0.00,,,0.01,Wunderground v.1.15,2013-05-31 09:05:00,
2013-05-31 05:10:00,68.8,61.3,30.14,SSW,209,0.0,0.0,77,0.00,,,0.01,Wunderground v.1.15,2013-05-31 09:10:00,
2013-05-31 05:15:00,69.1,61.2,30.14,South,191,1.0,1.0,76,0.00,,,0.01,Wunderground v.1.15,2013-05-31 09:15:00,
2013-05-31 05:25:00,69.1,61.2,30.14,East,91,0.0,1.0,76,0.00,,,0.01,Wunderground v.1.15,2013-05-31 09:25:00,
2013-05-31 05:30:00,68.9,61.4,30.14,East,92,0.0,0.0,77,0.00,,,0.01,Wunderground v.1.15,2013-05-31 09:30:00,
2013-05-31 05:35:00,68.7,61.2,30.14,SE,126,0.0,0.0,77,0.00,,,0.01,Wunderground v.1.15,2013-05-31 09:35:00,
2013-05-31 05:40:00,68.6,61.5,30.14,South,176,1.0,1.0,78,0.00,,,0.01,Wunderground v.1.15,2013-05-31 09:40:00,
2013-05-31 05:45:00,68.7,61.2,30.14,SSW,196,1.0,1.0,77,0.00,,,0.01,Wunderground v.1.15,2013-05-31 09:45:00,
2013-05-31 05:50:00,68.8,61.3,30.14,SSW,192,0.0,0.0,77,0.00,,,0.01,Wunderground v.1.15,2013-05-31 09:50:00,
2013-05-31 05:55:00,69.2,61.7,30.14,South,176,0.0,0.0,77,0.00,,,0.01,Wunderground v.1.15,2013-05-31 09:55:00,
2013-05-31 06:00:00,69.6,61.7,30.14,WSW,240,0.0,0.0,76,0.00,,,0.01,Wunderground v.1.15,2013-05-31 10:00:00,
2013-05-31 06:05:00,69.9,62.0,30.15,SW,229,0.0,0.0,76,0.00,,,0.01,Wunderground v.1.15,2013-05-31 10:05:00,
2013-05-31 06:10:00,70.3,62.0,30.15,SSW,211,1.0,1.0,75,0.00,,,0.01,Wunderground v.1.15,2013-05-31 10:10:00,
2013-05-31 06:15:00,70.7,62.0,30.15,SSW,208,1.0,1.0,74,0.00,,,0.01,Wunderground v.1.15,2013-05-31 10:15:00,
2013-05-31 06:20:00,71.2,62.1,30.15,SW,233,1.0,1.0,73,0.00,,,0.01,Wunderground v.1.15,2013-05-31 10:20:00,
2013-05-31 06:25:00,71.5,62.0,30.15,SW,216,1.0,1.0,72,0.00,,,0.01,Wunderground v.1.15,2013-05-31 10:25:00,
2013-05-31 06:30:00,71.9,62.4,30.16,WNW,288,1.0,1.0,72,0.00,,,0.01,Wunderground v.1.15,2013-05-31 10:30:00,
2013-05-31 06:35:00,72.1,62.6,30.15,South,191,1.0,1.0,72,0.00,,,0.01,Wunderground v.1.15,2013-05-31 10:35:00,
2013-05-31 06:45:00,72.6,63.4,30.15,SW,229,0.0,1.0,73,0.00,,,0.01,Wunderground v.1.15,2013-05-31 10:45:00,
2013-05-31 06:50:00,72.8,62.4,30.16,SSW,202,0.0,0.0,70,0.00,,,0.01,Wunderground v.1.15,2013-05-31 10:50:00,
2013-05-31 06:55:00,73.1,63.1,30.16,WSW,247,0.0,1.0,71,0.00,,,0.01,Wunderground v.1.15,2013-05-31 10:55:00,
2013-05-31 07:00:00,73.4,63.4,30.15,SSW,192,0.0,0.0,71,0.00,,,0.01,Wunderground v.1.15,2013-05-31 11:00:00,
2013-05-31 07:05:00,73.7,63.7,30.15,South,173,0.0,0.0,71,0.00,,,0.02,Wunderground v.1.15,2013-05-31 11:05:00,
2013-05-31 07:10:00,73.9,64.3,30.15,West,279,0.0,1.0,72,0.00,,,0.02,Wunderground v.1.15,2013-05-31 11:10:00,
2013-05-31 07:15:00,74.1,63.7,30.15,SSW,192,0.0,2.0,70,0.00,,,0.02,Wunderground v.1.15,2013-05-31 11:15:00,
2013-05-31 07:20:00,74.4,64.0,30.15,SSW,192,0.0,0.0,70,0.00,,,0.02,Wunderground v.1.15,2013-05-31 11:20:00,
2013-05-31 07:25:00,75.0,65.8,30.15,SSW,211,0.0,0.0,73,0.00,,,0.02,Wunderground v.1.15,2013-05-31 11:25:00,
2013-05-31 07:30:00,75.4,65.7,30.15,SSW,194,0.0,0.0,72,0.00,,,0.02,Wunderground v.1.15,2013-05-31 11:30:00,
2013-05-31 07:35:00,75.8,65.7,30.15,WSW,248,0.0,0.0,71,0.00,,,0.02,Wunderground v.1.15,2013-05-31 11:35:00,
2013-05-31 07:40:00,76.0,65.9,30.15,NW,309,0.0,0.0,71,0.00,,,0.02,Wunderground v.1.15,2013-05-31 11:40:00,
2013-05-31 07:45:00,76.2,64.0,30.15,SW,225,0.0,2.0,66,0.00,,,0.02,Wunderground v.1.15,2013-05-31 11:45:00,
2013-05-31 07:55:00,76.3,63.7,30.15,WSW,241,1.0,1.0,65,0.00,,,0.02,Wunderground v.1.15,2013-05-31 11:55:00,
2013-05-31 08:00:00,76.3,63.7,30.15,SW,219,1.0,1.0,65,0.00,,,0.02,Wunderground v.1.15,2013-05-31 12:00:00,
2013-05-31 08:05:00,76.3,63.7,30.15,WSW,237,1.0,1.0,65,0.00,,,0.02,Wunderground v.1.15,2013-05-31 12:05:00,
2013-05-31 08:10:00,76.4,63.8,30.15,WNW,302,1.0,1.0,65,0.00,,,0.02,Wunderground v.1.15,2013-05-31 12:10:00,
2013-05-31 08:15:00,76.6,63.5,30.15,WSW,240,0.0,1.0,64,0.00,,,0.02,Wunderground v.1.15,2013-05-31 12:15:00,
2013-05-31 08:20:00,76.9,63.8,30.15,West,261,1.0,1.0,64,0.00,,,0.02,Wunderground v.1.15,2013-05-31 12:20:00,
2013-05-31 08:25:00,77.2,65.0,30.15,West,266,1.0,1.0,66,0.00,,,0.02,Wunderground v.1.15,2013-05-31 12:25:00,
2013-05-31 08:30:00,77.3,63.7,30.15,WSW,250,1.0,1.0,63,0.00,,,0.02,Wunderground v.1.15,2013-05-31 12:30:00,
2013-05-31 08:35:00,77.1,64.0,30.15,West,268,1.0,1.0,64,0.00,,,0.02,Wunderground v.1.15,2013-05-31 12:35:00,
2013-05-31 08:40:00,76.9,63.8,30.15,SW,220,2.0,2.0,64,0.00,,,0.02,Wunderground v.1.15,2013-05-31 12:40:00,
2013-05-31 08:45:00,76.9,64.2,30.15,WSW,239,3.0,3.0,65,0.00,,,0.02,Wunderground v.1.15,2013-05-31 12:45:00,
2013-05-31 08:55:00,77.2,63.2,30.15,WSW,256,2.0,3.0,62,0.00,,,0.02,Wunderground v.1.15,2013-05-31 12:55:00,
2013-05-31 09:00:00,77.3,63.7,30.15,West,277,2.0,2.0,63,0.00,,,0.02,Wunderground v.1.15,2013-05-31 13:00:00,
2013-05-31 09:05:00,77.5,63.5,30.14,WSW,254,2.0,2.0,62,0.00,,,0.02,Wunderground v.1.15,2013-05-31 13:05:00,
2013-05-31 09:10:00,77.7,63.6,30.15,WNW,292,3.0,4.0,62,0.00,,,0.02,Wunderground v.1.15,2013-05-31 13:10:00,
2013-05-31 09:15:00,77.8,64.2,30.15,WSW,242,3.0,4.0,63,0.00,,,0.02,Wunderground v.1.15,2013-05-31 13:15:00,
2013-05-31 09:20:00,78.0,64.4,30.15,SW,234,3.0,3.0,63,0.00,,,0.02,Wunderground v.1.15,2013-05-31 13:20:00,
2013-05-31 09:25:00,78.1,64.5,30.14,NW,326,2.0,3.0,63,0.00,,,0.02,Wunderground v.1.15,2013-05-31 13:25:00,
2013-05-31 09:30:00,78.0,64.4,30.14,South,177,3.0,3.0,63,0.00,,,0.02,Wunderground v.1.15,2013-05-31 13:30:00,
2013-05-31 09:40:00,77.9,65.2,30.14,SSW,208,2.0,2.0,65,0.00,,,0.02,Wunderground v.1.15,2013-05-31 13:40:00,
2013-05-31 09:45:00,78.2,64.1,30.13,West,273,2.0,2.0,62,0.00,,,0.02,Wunderground v.1.15,2013-05-31 13:45:00,
2013-05-31 09:50:00,78.7,65.9,30.13,West,281,1.0,1.0,65,0.00,,,0.02,Wunderground v.1.15,2013-05-31 13:50:00,
2013-05-31 09:55:00,79.3,66.1,30.13,SW,219,1.0,1.0,64,0.00,,,0.02,Wunderground v.1.15,2013-05-31 13:55:00,
2013-05-31 10:01:00,79.9,65.7,30.13,SW,220,1.0,1.0,62,0.00,,,0.02,Wunderground v.1.15,2013-05-31 14:01:00,
2013-05-31 10:10:00,80.1,65.9,30.13,West,271,1.0,2.0,62,0.00,,,0.02,Wunderground v.1.15,2013-05-31 14:10:00,
2013-05-31 10:15:00,80.1,67.7,30.13,WNW,290,1.0,1.0,66,0.00,,,0.02,Wunderground v.1.15,2013-05-31 14:15:00,
2013-05-31 10:20:00,80.3,67.0,30.13,SW,225,1.0,6.0,64,0.00,,,0.02,Wunderground v.1.15,2013-05-31 14:20:00,
2013-05-31 10:25:00,80.5,66.7,30.13,South,179,1.0,3.0,63,0.00,,,0.02,Wunderground v.1.15,2013-05-31 14:25:00,
2013-05-31 10:30:00,80.9,67.1,30.12,East,100,1.0,3.0,63,0.00,,,0.02,Wunderground v.1.15,2013-05-31 14:30:00,
2013-05-31 10:35:00,81.1,65.9,30.12,ESE,117,2.0,3.0,60,0.00,,,0.02,Wunderground v.1.15,2013-05-31 14:35:00,
2013-05-31 10:40:00,81.4,66.2,30.12,South,178,2.0,3.0,60,0.00,,,0.02,Wunderground v.1.15,2013-05-31 14:40:00,
2013-05-31 10:45:00,81.5,65.3,30.12,WNW,303,2.0,2.0,58,0.00,,,0.02,Wunderground v.1.15,2013-05-31 14:45:00,
2013-05-31 10:50:00,81.9,67.6,30.12,WNW,296,1.0,2.0,62,0.00,,,0.02,Wunderground v.1.15,2013-05-31 14:50:00,
2013-05-31 10:55:00,82.5,65.7,30.12,West,273,1.0,1.0,57,0.00,,,0.02,Wunderground v.1.15,2013-05-31 14:55:00,
2013-05-31 11:00:00,82.7,66.9,30.11,WNW,292,1.0,3.0,59,0.00,,,0.03,Wunderground v.1.15,2013-05-31 15:00:00,
2013-05-31 11:05:00,82.8,68.0,30.11,SSW,196,2.0,4.0,61,0.00,,,0.03,Wunderground v.1.15,2013-05-31 15:05:00,
2013-05-31 11:10:00,83.0,67.2,30.11,WSW,251,2.0,2.0,59,0.00,,,0.03,Wunderground v.1.15,2013-05-31 15:10:00,
2013-05-31 11:15:00,83.2,66.9,30.11,SSW,206,1.0,2.0,58,0.00,,,0.03,Wunderground v.1.15,2013-05-31 15:15:00,
2013-05-31 11:20:00,83.4,66.1,30.11,SSW,213,2.0,2.0,56,0.00,,,0.03,Wunderground v.1.15,2013-05-31 15:20:00,
2013-05-31 11:25:00,83.4,67.6,30.11,WSW,247,2.0,2.0,59,0.00,,,0.03,Wunderground v.1.15,2013-05-31 15:25:00,
2013-05-31 11:30:00,83.6,66.2,30.11,SW,229,2.0,2.0,56,0.00,,,0.03,Wunderground v.1.15,2013-05-31 15:30:00,
2013-05-31 11:35:00,83.8,66.9,30.11,SW,232,2.0,2.0,57,0.00,,,0.03,Wunderground v.1.15,2013-05-31 15:35:00,
2013-05-31 11:40:00,83.9,68.5,30.10,WSW,250,2.0,6.0,60,0.00,,,0.03,Wunderground v.1.15,2013-05-31 15:40:00,
2013-05-31 11:45:00,83.8,66.9,30.10,WNW,286,3.0,6.0,57,0.00,,,0.03,Wunderground v.1.15,2013-05-31 15:45:00,
2013-05-31 11:50:00,84.0,66.6,30.10,South,185,3.0,3.0,56,0.00,,,0.03,Wunderground v.1.15,2013-05-31 15:50:00,
2013-05-31 11:55:00,84.3,66.4,30.10,SW,227,3.0,3.0,55,0.00,,,0.03,Wunderground v.1.15,2013-05-31 15:55:00,
2013-05-31 12:00:00,84.4,67.0,30.10,WSW,256,3.0,3.0,56,0.00,,,0.03,Wunderground v.1.15,2013-05-31 16:00:00,
2013-05-31 12:05:00,84.4,67.0,30.10,WSW,237,3.0,5.0,56,0.00,,,0.03,Wunderground v.1.15,2013-05-31 16:05:00,
2013-05-31 12:10:00,84.5,68.1,30.09,South,180,3.0,3.0,58,0.00,,,0.03,Wunderground v.1.15,2013-05-31 16:10:00,
2013-05-31 12:15:00,84.8,68.4,30.09,SSW,213,3.0,3.0,58,0.00,,,0.03,Wunderground v.1.15,2013-05-31 16:15:00,
2013-05-31 12:20:00,85.1,67.1,30.09,ESE,118,2.0,2.0,55,0.00,,,0.03,Wunderground v.1.15,2013-05-31 16:20:00,
2013-05-31 12:25:00,85.2,67.7,30.09,SSW,198,2.0,4.0,56,0.00,,,0.03,Wunderground v.1.15,2013-05-31 16:25:00,
2013-05-31 12:30:00,85.2,66.1,30.09,SW,235,3.0,5.0,53,0.00,,,0.03,Wunderground v.1.15,2013-05-31 16:30:00,
2013-05-31 12:35:00,85.1,66.0,30.09,SW,217,4.0,5.0,53,0.00,,,0.03,Wunderground v.1.15,2013-05-31 16:35:00,
2013-05-31 12:40:00,85.2,67.7,30.09,WNW,292,4.0,4.0,56,0.00,,,0.03,Wunderground v.1.15,2013-05-31 16:40:00,
2013-05-31 12:45:00,85.4,67.4,30.08,SW,227,4.0,5.0,55,0.00,,,0.03,Wunderground v.1.15,2013-05-31 16:45:00,
2013-05-31 12:50:00,85.4,66.9,30.08,WSW,251,4.0,4.0,54,0.00,,,0.03,Wunderground v.1.15,2013-05-31 16:50:00,
2013-05-31 12:55:00,85.4,66.9,30.08,SW,217,4.0,5.0,54,0.00,,,0.03,Wunderground v.1.15,2013-05-31 16:55:00,
2013-05-31 13:00:00,85.6,66.5,30.08,SSE,157,4.0,4.0,53,0.00,,,0.03,Wunderground v.1.15,2013-05-31 17:00:00,
2013-05-31 13:10:00,86.0,66.9,30.08,West,270,3.0,5.0,53,0.00,,,0.03,Wunderground v.1.15,2013-05-31 17:10:00,
2013-05-31 13:20:00,86.7,67.0,30.08,NW,323,4.0,4.0,52,0.00,,,0.03,Wunderground v.1.15,2013-05-31 17:20:00,
2013-05-31 13:25:00,87.0,67.2,30.08,NW,318,4.0,4.0,52,0.00,,,0.03,Wunderground v.1.15,2013-05-31 17:25:00,
2013-05-31 13:30:00,87.0,67.2,30.08,WNW,284,4.0,9.0,52,0.00,,,0.03,Wunderground v.1.15,2013-05-31 17:30:00,
2013-05-31 13:35:00,87.0,67.8,30.07,SW,229,4.0,9.0,53,0.00,,,0.03,Wunderground v.1.15,2013-05-31 17:35:00,
2013-05-31 13:40:00,87.1,69.0,30.07,SW,225,3.0,5.0,55,0.00,,,0.03,Wunderground v.1.15,2013-05-31 17:40:00,
2013-05-31 13:45:00,87.0,68.3,30.07,SW,227,4.0,9.0,54,0.00,,,0.03,Wunderground v.1.15,2013-05-31 17:45:00,
2013-05-31 13:50:00,87.1,67.9,30.07,South,185,4.0,4.0,53,0.00,,,0.03,Wunderground v.1.15,2013-05-31 17:50:00,
2013-05-31 13:55:00,87.5,68.3,30.07,SW,225,4.0,6.0,53,0.00,,,0.03,Wunderground v.1.15,2013-05-31 17:55:00,